Location: Newark
(44.3449°N, 4.8694°E)
Time: 00:50:48
(UTC+00:00)

Envisat - Pass Details

Date: 26 January 2020
Orbit: 764 x 766 km, 98.1° (Epoch: 25 February)

Event Time Altitude Azimuth Distance (km) Brightness Sun altitude
Rises 18:30:21 0° 200° (SSW) 3,220 6.6 -19.5°
Reaches altitude 10° 18:33:05 10° 215° (SW) 2,299 6.0 -20.0°
Maximum altitude 18:37:06 23° 267° (W) 1,574 5.5 -20.7°
Drops below altitude 10° 18:41:08 10° 320° (NW) 2,312 5.9 -21.4°
Sets 18:43:55 0° 334° (NNW) 3,243 6.5 -21.9°
